Content
SEND FEEDBACK

Daily
Averages
Monthly
Summary
Mexico

CANCUN, QUINTANA ROO


Home > North America > Mexico > Quintana Roo
Elevation: 30 feet     Latitude: 21 09N     Longitude: 086 49W

WEATHER
 
SELECT A DAY
Number of Records: 166,377;   Date Range: 1/1/95 - 10/21/14
 
SHARE

PRINT THIS DATA

[ ← Previous Day ]
WEATHER ALMANAC - OCTOBER 22, 2013
[ Next Day → ]
[ °C ]   °F
Weather ElementAverageHighLow
Temperature82.4 °F87.8 °F (10:48 am)77 °F (1:56 am)
Dewpoint75.9 °F80.6 °F (2:46 pm)75.2 °F (1:56 am)
Humidity81.3 %94 % (1:56 am)66 % (12:47 pm)
Barometer29.89 in29.93 in (10:48 am)29.83 in (4:41 pm)
Wind Speed6.5 mph16.1 mph (10:48 am)
Weather ElementAverage
Visibility7 mi
Wind DirectionESE (110 °)

Weather ElementTotal
Precipitation---
Cooling Degree Days17.4 (Base 65)
Growing Degree Days32.4 (Base 50)
Averaged from 23 records on October 22, 2013
WEATHER CONDITIONS BREAKOUT
WIND DIRECTION BREAKOUT
WEATHER BY HOUR - OCTOBER 22, 2013
[ °C ]   °F
Local TimeTemperatureDewpointHumidityBarometerVisibilityWind DirectionWind SpeedGust SpeedPrecipitationEventsConditions
1:56 AM77.0 °F75.2 °F94 %29.91 in7.0 miCalmPartly Cloudy
2:42 AM77.0 °F75.2 °F94 %29.89 in7.0 miESE (120°)3.5 mphPartly Cloudy
3:46 AM77.0 °F75.2 °F94 %29.86 in7.0 miCalmPartly Cloudy
4:43 AM78.8 °F75.2 °F89 %29.87 in7.0 miESE (110°)5.8 mphPartly Cloudy
5:43 AM77.0 °F75.2 °F94 %29.88 in7.0 miESE (110°)2.3 mphPartly Cloudy
6:45 AM80.6 °F75.2 °F84 %29.88 in7.0 miESE (120°)8.1 mphMostly Cloudy
7:45 AM82.4 °F77.0 °F84 %29.89 in7.0 miESE (110°)6.9 mphScattered Clouds
8:45 AM84.2 °F77.0 °F79 %29.90 in7.0 miESE (110°)9.2 mphScattered Clouds
9:41 AM86.0 °F77.0 °F74 %29.91 in7.0 miSE (140°)10.4 mphScattered Clouds
10:48 AM87.8 °F77.0 °F70 %29.93 in7.0 miSE (130°)16.1 mphMostly Cloudy
11:40 AM87.8 °F77.0 °F70 %29.93 in7.0 miSSE (150°)16.1 mphScattered Clouds
12:47 PM87.8 °F75.2 °F66 %29.91 in7.0 miSSE (150°)10.4 mphScattered Clouds
1:49 PM87.8 °F75.2 °F66 %29.88 in7.0 miSouth (180°)8.1 mphScattered Clouds
2:46 PM87.8 °F80.6 °F79 %29.85 in7.0 miSouth (180°)9.2 mphPartly Cloudy
3:44 PM87.8 °F75.2 °F66 %29.85 in7.0 miSSE (150°)6.9 mphScattered Clouds
4:41 PM86.0 °F75.2 °F70 %29.83 in7.0 miESE (120°)9.2 mphScattered Clouds
5:40 PM84.2 °F75.2 °F74 %29.84 in7.0 miSE (130°)9.2 mphPartly Cloudy
6:40 PM80.6 °F75.2 °F84 %29.85 in7.0 miSE (130°)4.6 mphScattered Clouds
7:45 PM80.6 °F77.0 °F89 %29.89 in7.0 miCalmScattered Clouds
8:42 PM80.6 °F75.2 °F84 %29.90 in7.0 miESE (110°)2.3 mphPartly Cloudy
9:48 PM78.8 °F75.2 °F89 %29.89 in7.0 miCalmPartly Cloudy
10:47 PM78.8 °F75.2 °F89 %29.92 in7.0 miESE (120°)5.8 mphPartly Cloudy
11:46 PM78.8 °F75.2 °F89 %29.91 in7.0 miSSE (160°)5.8 mphPartly Cloudy
Hourly data recorded from MMUN, located miles away from Cancun, Quintana Roo







STORIES FROM OUR PARTNERS